Location: Sagn�
(15.2046°N, 12.7898°W)
Time: 14:00:32
(UTC+00:00)

OAO 3 Rocket - Pass Details

Date: 08 May 2021
Orbit: 628 x 683 km, 35.0° (Epoch: 14 June)

Event Time Altitude Azimuth Distance (km) Brightness Sun altitude
Rises 20:51:51 0° 227° (SW) 2,895 6.7 -23.4°
Reaches altitude 10° 20:54:13 10° 222° (SW) 1,989 5.8 -23.9°
Enters shadow 20:56:55 33° 207° (SSW) 1,051 4.2 -24.5°
